• Join FlightAware (Why Join?)
  • Login
  • US Flag GB Flag 
22:26 EST


 

Airport Tracker/Info


-or-


 

Live Flight TrackerFlight Track Log ✈ RPA3865 ✈ 22-Apr-2013 ✈ KEWR - CYYZ

Flight Track Log - Related Links

Times and Time Zones

All times are in EDT time to prevent confusion due to time zone crossing. See the RPA3865 flight status page for this flight to view local times or setup timezone preferences in your user account.

Time Position Orientation Groundspeed Altitude Reporting Facility
EDT Latitude Longitude Course Direction KTS MPH feet Rate Location/Type
10:10 40.7167 -74.1333 37° Northeast 188 216 2,500  Level New York TRACON
10:11 40.7667 -74.0833 37° Northeast 225 259 4,700 1,320 Climbing New York TRACON
10:12 40.8167 -74.1500 315° West 267 307 5,200 1,200 Climbing New York TRACON
10:13 40.8667 -74.2333 308° West 268 308 7,200 1,620 Climbing New York TRACON
10:15 40.9406 -74.3586 308° West 284 327 9,600 1,020 Climbing New York Center
10:16 40.9961 -74.4494 309° West 285 328 10,100 780 Climbing New York Center
10:17 41.0433 -74.5344 306° West 307 353 11,200 1,260 Climbing New York Center
10:18 41.1006 -74.6342 307° West 307 353 12,700 1,380 Climbing New York Center
10:19 41.1478 -74.7167 307° West 307 353 14,000 1,260 Climbing New York Center
10:20 41.1939 -74.8325 298° West 317 365 15,300 1,560 Climbing New York Center
10:21 41.2383 -74.9289 302° West 317 365 17,200 1,260 Climbing New York Center
10:22 41.2808 -75.0225 301° West 312 359 17,900 1,020 Climbing New York Center
10:23 41.3153 -75.1078 298° West 301 346 19,300 1,140 Climbing New York Center
10:24 41.3553 -75.2042 299° West 296 341 20,200 1,020 Climbing New York Center
10:25 41.3978 -75.2983 301° West 296 341 21,400 1,140 Climbing New York Center
10:26 41.4378 -75.3950 299° West 301 346 22,500 960 Climbing New York Center
10:27 41.4797 -75.4922 300° West 301 346 23,400 720 Climbing New York Center
10:28 41.5089 -75.5967 290° West 301 346 24,000 300 Climbing New York Center
10:29 41.5397 -75.7042 291° West 309 356 24,000  Level New York Center
10:30 41.5744 -75.8206 292° West 321 369 24,000  Level New York Center
10:31 41.6067 -75.9394 290° West 332 382 24,000  Level New York Center
10:32 41.6411 -76.0586 291° West 339 390 24,000  Level New York Center
10:33 41.6753 -76.1808 291° West 344 396 24,000  Level New York Center
10:34 41.7072 -76.3000 290° West 344 396 24,000  Level New York Center
10:35 41.7411 -76.4225 290° West 344 396 24,000  Level New York Center
10:36 41.7847 -76.5542 294° West 349 402 24,000  Level New York Center
10:37 41.8506 -76.6517 312° West 349 402 24,000  Level New York Center
10:38 41.9544 -76.8106 311° West 352 405 24,000  Level Cleveland Center
10:39 42.0203 -76.9131 311° West 357 411 24,000  Level Cleveland Center
10:40 42.0858 -77.0128 312° West 357 411 24,000  Level Cleveland Center
10:41 42.1436 -77.1217 306° West 362 417 24,000  Level Cleveland Center
10:42 42.2008 -77.2306 305° West 362 417 24,000  Level Cleveland Center
10:43 42.2603 -77.3397 306° West 362 417 24,000  Level Cleveland Center
10:44 42.3175 -77.4492 305° West 367 422 24,000  Level Cleveland Center
10:45 42.3747 -77.5589 305° West 367 422 24,000  Level Cleveland Center
10:46 42.4339 -77.6742 305° West 367 422 24,000  Level Cleveland Center
10:47 42.4889 -77.7842 304° West 367 422 24,000  Level Cleveland Center
10:48 42.5411 -77.8833 306° West 367 422 24,000  Level Cleveland Center
10:49 42.6000 -77.9939 306° West 367 422 24,000  Level Cleveland Center
10:50 42.6567 -78.1072 304° West 367 422 24,000  Level Cleveland Center
10:51 42.7111 -78.2153 304° West 367 422 24,000 -660 Level Cleveland Center
10:52 42.7675 -78.3236 305° West 367 422 22,700 -1,980 Descending Cleveland Center
10:53 42.8153 -78.4350 300° West 360 414 20,100 -2,280 Descending Cleveland Center
10:54 42.8178 -78.5622 272° West 331 381 18,200 -2,220 Descending Cleveland Center
10:55 42.8158 -78.6953 269° West 339 390 15,700 -2,100 Descending Cleveland Center
10:56 42.8467 -78.8106 290° West 345 397 14,000 -900 Descending Cleveland Center
10:57 42.9189 -78.8964 319° Northwest 326 375 14,000 -120 Level Cleveland Center
10:58 43.0000 -78.9667 328° Northwest 330 380 13,800 -600 Descending Toronto Center
10:59 43.0667 -79.0333 324° Northwest 310 357 12,800 -1,020 Descending Toronto Center